GW4763 Weather Reports


time (UTC)temp
C
wind
direction
speed
KPH
gust
KPH
rain 1hr
cm
rain 24hr
cm
rain mn
cm
humidity
%
barometer
mb
20260503215258 23 308 12.9 24.1 0.00 0.00 0.00 17
20260503214658 23 281 6.4 25.7 0.00 0.00 0.00 16
20260503214058 23 278 8.0 17.7 0.00 0.00 0.00 16
20260503213459 23 261 1.6 17.7 0.00 0.00 0.00 18
20260503212859 24 255 8.0 17.7 0.00 0.00 0.00 16
20260503212259 24 246 4.8 20.9 0.00 0.00 0.00 17
20260503211658 24 291 4.8 20.9 0.00 0.00 0.00 19
20260503210458 23 282 8.0 22.5 0.00 0.00 0.00 17
20260503205858 23 229 0.0 14.5 0.00 0.00 0.00 18
20260503205259 23 248 4.8 16.1 0.00 0.00 0.00 21
20260503204658 23 231 6.4 14.5 0.00 0.00 0.00 19
20260503204058 24 243 4.8 19.3 0.00 0.00 0.00 17
20260503203459 24 322 4.8 6.4 0.00 0.00 0.00 19
20260503202915 24 337 0.0 19.3 0.00 0.00 0.00 20
20260503202259 24 276 6.4 24.1 0.00 0.00 0.00 16
20260503201659 24 269 11.3 25.7 0.00 0.00 0.00 16
20260503201059 24 307 0.0 11.3 0.00 0.00 0.00 17
20260503200458 24 2 3.2 14.5 0.00 0.00 0.00 20
20260503195915 23 330 3.2 22.5 0.00 0.00 0.00 22
20260503195258 24 263 6.4 11.3 0.00 0.00 0.00 23
20260503194659 24 128 3.2 14.5 0.00 0.00 0.00 26
20260503194058 23 114 6.4 12.9 0.00 0.00 0.00 25
20260503193549 23 77 4.8 14.5 0.00 0.00 0.00 23
20260503192858 24 164 6.4 22.5 0.00 0.00 0.00 23
20260503192258 24 131 1.6 17.7 0.00 0.00 0.00 27
20260503191659 23 142 6.4 22.5 0.00 0.00 0.00 27
20260503191149 23 37 0.0 14.5 0.00 0.00 0.00 24
20260503190459 23 253 3.2 17.7 0.00 0.00 0.00 27
20260503185915 23 340 3.2 14.5 0.00 0.00 0.00 31
20260503185258 22 15 0.0 14.5 0.00 0.00 0.00 34
20260503184658 22 77 6.4 11.3 0.00 0.00 0.00 30
20260503184058 22 22 1.6 17.7 0.00 0.00 0.00 32
20260503183458 22 15 0.0 16.1 0.00 0.00 0.00 31
20260503182858 23 159 3.2 11.3 0.00 0.00 0.00 30
20260503182259 22 252 0.0 22.5 0.00 0.00 0.00 29
20260503181658 22 142 6.4 22.5 0.00 0.00 0.00 34
20260503181058 22 107 4.8 22.5 0.00 0.00 0.00 36
20260503180459 22 86 3.2 19.3 0.00 0.00 0.00 34
20260503175858 21 85 4.8 11.3 0.00 0.00 0.00 34
20260503175259 21 102 6.4 14.5 0.00 0.00 0.00 35
20260503174658 20 58 6.4 25.7 0.00 0.00 0.00 37
20260503174101 21 86 0.0 22.5 0.00 0.00 0.00 36
20260503173458 21 93 8.0 14.5 0.00 0.00 0.00 38
20260503172858 20 85 6.4 22.5 0.00 0.00 0.00 40
20260503172259 20 77 6.4 25.7 0.00 0.00 0.00 40
20260503171716 20 110 12.9 14.5 0.00 0.00 0.00 41
20260503171058 20 151 3.2 17.7 0.00 0.00 0.00 42
20260503170515 19 113 3.2 22.5 0.00 0.00 0.00 44
20260503150458 14 104 4.8 16.1 0.00 0.00 0.00 62
20260503131115 4 267 0.0 0.0 0.00 0.00 0.00 96
20260503130458 3 267 0.0 4.8 0.00 0.00 0.00 97
20260503110458 3 273 0.0 4.8 0.00 0.00 0.00 92
20260503090458 4 290 0.0 3.2 0.00 0.00 0.00 90
20260503081058 6 238 0.0 3.2 0.00 0.00 0.00 87
20260503080515 6 254 0.0 0.0 0.00 0.00 0.00 85
20260503072858 6 270 0.0 4.8 0.00 0.00 0.00 84
20260503072333 6 274 1.6 4.8 0.00 0.00 0.00 84
20260503071732 6 275 3.2 4.8 0.00 0.00 0.00 84
20260503071059 6 276 1.6 3.2 0.00 0.00 0.00 85
20260503070515 6 280 0.0 3.2 0.00 0.00 0.00 84
20260503054659 9 296 0.0 4.8 0.00 0.00 0.00 78
20260503054058 10 306 0.0 4.8 0.00 0.00 0.00 71
20260503053515 10 298 0.0 4.8 0.00 0.00 0.00 69
20260503052858 10 299 3.2 6.4 0.00 0.00 0.00 69
20260503052258 11 299 1.6 4.8 0.00 0.00 0.00 67
20260503051715 11 310 1.6 6.4 0.00 0.00 0.00 65
20260503051059 11 320 4.8 8.0 0.00 0.00 0.00 65
20260503050458 11 329 4.8 8.0 0.00 0.00 0.00 65
20260503045858 11 334 4.8 6.4 0.00 0.00 0.00 66
20260503045258 11 320 0.0 6.4 0.00 0.00 0.00 64
20260503044658 11 324 0.0 8.0 0.00 0.00 0.00 65
20260503044058 11 321 3.2 8.0 0.00 0.00 0.00 66
20260503043458 11 307 0.0 4.8 0.00 0.00 0.00 76
20260503042858 11 256 1.6 4.8 0.00 0.00 0.00 72
20260503042259 12 347 0.0 4.8 0.00 0.00 0.00 64
20260503041658 12 19 0.0 4.8 0.00 0.00 0.00 63
20260503041115 12 117 0.0 8.0 0.00 0.00 0.00 62
20260503040515 13 132 4.8 11.3 0.00 0.00 0.00 59
20260503035859 12 130 0.0 6.4 0.00 0.00 0.00 63
20260503035316 12 64 0.0 9.7 0.00 0.00 0.00 58
20260503034715 11 29 1.6 6.4 0.00 0.00 0.00 64
20260503034058 11 326 3.2 6.4 0.00 0.00 0.00 71
20260503033458 11 278 0.0 0.0 0.00 0.00 0.00 80
20260503032858 11 272 0.0 0.0 0.00 0.00 0.00 74
20260503032259 12 342 0.0 6.4 0.00 0.00 0.00 69
20260503031715 12 344 1.6 3.2 0.00 0.00 0.00 65
20260503031059 14 129 0.0 9.7 0.00 0.00 0.00 54
20260503030458 13 148 0.0 4.8 0.00 0.00 0.00 56
20260503025859 14 122 0.0 8.0 0.00 0.00 0.00 56
20260503025259 15 235 0.0 6.4 0.00 0.00 0.00 57
20260503024659 15 141 0.0 9.7 0.00 0.00 0.00 51
20260503024058 15 119 3.2 12.9 0.00 0.00 0.00 53
20260503023515 13 176 0.0 8.0 0.00 0.00 0.00 68
20260503022858 13 202 3.2 4.8 0.00 0.00 0.00 72
20260503022258 13 107 0.0 0.0 0.00 0.00 0.00 69
20260503021716 15 107 0.0 3.2 0.00 0.00 0.00 60
20260503021100 16 91 0.0 3.2 0.00 0.00 0.00 47
20260503020458 17 68 0.0 8.0 0.00 0.00 0.00 43
20260503015859 17 90 1.6 14.5 0.00 0.00 0.00 42
20260503015350 17 113 4.8 14.5 0.00 0.00 0.00 42
20260503014659 18 93 1.6 17.7 0.00 0.00 0.00 41
20260503014058 18 97 4.8 16.1 0.00 0.00 0.00 40
20260503013459 18 79 6.4 22.5 0.00 0.00 0.00 39
20260503012859 18 78 8.0 22.5 0.00 0.00 0.00 39
20260503012258 19 110 6.4 17.7 0.00 0.00 0.00 38
20260503011659 19 86 8.0 19.3 0.00 0.00 0.00 38
20260503011059 20 105 3.2 19.3 0.00 0.00 0.00 36
20260503010459 19 97 4.8 20.9 0.00 0.00 0.00 36
20260503005915 19 65 8.0 17.7 0.00 0.00 0.00 37
20260503005316 19 51 1.6 8.0 0.00 0.00 0.00 36
20260503004658 20 143 0.0 9.7 0.00 0.00 0.00 36
20260503004059 20 11 0.0 11.3 0.00 0.00 0.00 35
20260503003459 20 0 4.8 12.9 0.00 0.00 0.00 37
20260503002858 20 35 6.4 14.5 0.00 0.00 0.00 35
20260503002258 20 48 1.6 11.3 0.00 0.00 0.00 34
20260503001659 20 23 4.8 11.3 0.00 0.00 0.00 35
20260503001058 20 96 3.2 17.7 0.00 0.00 0.00 33
20260503000515 20 80 6.4 16.1 0.00 0.00 0.00 34
20260502235859 20 106 4.8 12.9 0.00 0.00 0.00 34
20260502235259 20 85 0.0 14.5 0.00 0.00 0.00 34
20260502234715 21 92 6.4 14.5 0.00 0.00 0.00 32
20260502234058 21 89 3.2 14.5 0.00 0.00 0.00 35
20260502233458 21 52 3.2 17.7 0.00 0.00 0.00 35
20260502232859 21 40 6.4 12.9 0.00 0.00 0.00 34
20260502232259 21 25 4.8 14.5 0.00 0.00 0.00 33
20260502231658 21 64 4.8 12.9 0.00 0.00 0.00 34
20260502231058 21 71 0.0 8.0 0.00 0.00 0.00 30
20260502230532 20 134 1.6 12.9 0.00 0.00 0.00 31
20260502225858 21 111 4.8 11.3 0.00 0.00 0.00 33
20260502225315 21 75 3.2 17.7 0.00 0.00 0.00 30
20260502224658 21 110 6.4 16.1 0.00 0.00 0.00 31
20260502224059 21 94 6.4 12.9 0.00 0.00 0.00 32
20260502223458 21 88 4.8 14.5 0.00 0.00 0.00 31
20260502222859 21 38 0.0 14.5 0.00 0.00 0.00 32
20260502222259 21 52 0.0 12.9 0.00 0.00 0.00 33
20260502221715 21 55 3.2 14.5 0.00 0.00 0.00 33
20260502221059 21 44 8.0 22.5 0.00 0.00 0.00 30
20260502220515 22 79 11.3 20.9 0.00 0.00 0.00 35
20260502215858 22 25 8.0 24.1 0.00 0.00 0.00 33